FFT234 KLAX-KDEN

Flight info

Callsign FFT234
Flight time 2h 7m
Altitude 37000
Route ORCKA5 LAS J146 FREDD/N0447F390 J146 DICEE BUMMP SSKII4
Aircraft A320/M-SDE3FGHIRWY/LB1

Departure

Time 2026-05-06 01:12
Airport Los Angeles International Airport (KLAX)

Arrival

Time 2026-05-06 03:19
Airport Denver International Airport (KDEN)
Time Latitude Longitude Altitude Speed Heading
2026-05-06 00:45 33.94065 -118.40499 126 ft 0 kts 82°
2026-05-06 01:02 33.94065 -118.40500 126 ft 2 kts 82°
2026-05-06 01:02 33.94062 -118.40520 117 ft 2 kts 84°
2026-05-06 01:02 33.94065 -118.40540 129 ft 2 kts 146°
2026-05-06 01:03 33.94069 -118.40544 123 ft 0 kts 169°
2026-05-06 01:06 33.94043 -118.40544 123 ft 10 kts 182°
2026-05-06 01:06 33.93947 -118.40543 123 ft 17 kts 178°
2026-05-06 01:06 33.93833 -118.40494 124 ft 18 kts 114°
2026-05-06 01:07 33.93847 -118.40332 126 ft 25 kts 79°
2026-05-06 01:07 33.93874 -118.40066 126 ft 38 kts 84°
2026-05-06 01:07 33.93906 -118.39734 126 ft 41 kts 83°
2026-05-06 01:07 33.93942 -118.39388 124 ft 42 kts 83°
2026-05-06 01:08 33.93976 -118.39052 126 ft 42 kts 83°
2026-05-06 01:08 33.94010 -118.38701 125 ft 43 kts 83°
2026-05-06 01:08 33.94043 -118.38384 122 ft 36 kts 83°
2026-05-06 01:08 33.94063 -118.38194 126 ft 12 kts 83°
2026-05-06 01:09 33.94071 -118.38091 126 ft 7 kts 84°
2026-05-06 01:09 33.94074 -118.38045 122 ft 3 kts 90°
2026-05-06 01:09 33.94072 -118.38032 123 ft 0 kts 100°
2026-05-06 01:09 33.94071 -118.38026 124 ft 0 kts 107°
2026-05-06 01:10 33.94070 -118.38025 124 ft 1 kts 109°
2026-05-06 01:10 33.94004 -118.38010 123 ft 14 kts 204°
2026-05-06 01:10 33.93980 -118.38057 122 ft 1 kts 259°
2026-05-06 01:10 33.93980 -118.38061 123 ft 0 kts 263°
2026-05-06 01:11 33.93980 -118.38062 123 ft 0 kts 263°
2026-05-06 01:11 33.93946 -118.38390 126 ft 86 kts 263°
2026-05-06 01:12 33.93834 -118.39427 170 ft 155 kts 263°
2026-05-06 01:12 33.93690 -118.40845 707 ft 186 kts 263°
2026-05-06 01:12 33.93524 -118.42510 1343 ft 217 kts 264°
2026-05-06 01:12 33.93346 -118.44372 2114 ft 229 kts 264°
2026-05-06 01:13 33.93167 -118.46302 3035 ft 234 kts 263°
2026-05-06 01:13 33.92850 -118.48270 3833 ft 244 kts 258°
2026-05-06 01:13 33.92468 -118.50285 4645 ft 252 kts 258°
2026-05-06 01:13 33.92064 -118.52349 5014 ft 254 kts 257°
2026-05-06 01:14 33.90606 -118.56249 6852 ft 263 kts 238°
2026-05-06 01:14 33.89500 -118.58025 7627 ft 272 kts 227°
2026-05-06 01:14 33.87901 -118.59269 7922 ft 279 kts 199°
2026-05-06 01:15 33.85963 -118.59522 8630 ft 284 kts 177°
2026-05-06 01:15 33.84048 -118.59002 9329 ft 294 kts 152°
2026-05-06 01:15 33.82429 -118.57484 10014 ft 300 kts 126°
2026-05-06 01:15 33.81509 -118.55251 10801 ft 299 kts 101°
2026-05-06 01:16 33.81465 -118.52778 11559 ft 298 kts 74°
2026-05-06 01:16 33.82277 -118.50515 12333 ft 296 kts 51°
2026-05-06 01:16 33.83739 -118.48764 13114 ft 298 kts 38°
2026-05-06 01:16 33.85460 -118.47364 13879 ft 300 kts 30°
2026-05-06 01:17 33.87222 -118.45982 14567 ft 305 kts 32°
2026-05-06 01:17 33.88981 -118.44537 14906 ft 307 kts 33°
2026-05-06 01:17 33.90748 -118.43085 14982 ft 307 kts 33°
2026-05-06 01:17 33.92508 -118.41633 15009 ft 306 kts 34°
2026-05-06 01:18 33.94290 -118.40170 15009 ft 312 kts 33°
2026-05-06 01:18 33.95949 -118.38477 15010 ft 316 kts 47°
2026-05-06 01:18 33.97218 -118.36364 15029 ft 305 kts 55°
2026-05-06 01:18 33.98324 -118.34332 15026 ft 281 kts 54°
2026-05-06 01:19 33.99405 -118.32326 14997 ft 280 kts 56°
2026-05-06 01:19 34.00380 -118.30501 14988 ft 248 kts 54°
2026-05-06 01:19 34.01363 -118.28666 15013 ft 271 kts 56°
2026-05-06 01:19 34.02448 -118.26701 14997 ft 295 kts 54°
2026-05-06 01:20 34.03633 -118.24605 14970 ft 313 kts 54°
2026-05-06 01:20 34.04882 -118.22408 15193 ft 319 kts 54°
2026-05-06 01:20 34.06145 -118.20196 15931 ft 321 kts 54°
2026-05-06 01:20 34.07407 -118.17994 16641 ft 308 kts 53°
2026-05-06 01:21 34.08594 -118.15926 17352 ft 299 kts 54°
2026-05-06 01:21 34.09784 -118.13861 18108 ft 300 kts 54°
2026-05-06 01:21 34.10979 -118.11789 18804 ft 301 kts 54°
2026-05-06 01:21 34.12181 -118.09722 19481 ft 301 kts 54°
2026-05-06 01:22 34.13382 -118.07669 20181 ft 292 kts 54°
2026-05-06 01:22 34.14510 -118.05750 20874 ft 275 kts 54°
2026-05-06 01:22 34.15593 -118.03905 21584 ft 266 kts 54°
2026-05-06 01:22 34.16650 -118.02099 22331 ft 261 kts 54°
2026-05-06 01:23 34.17693 -118.00321 22969 ft 259 kts 54°
2026-05-06 01:23 34.18729 -117.98560 23472 ft 262 kts 54°
2026-05-06 01:23 34.19790 -117.96761 23914 ft 263 kts 54°
2026-05-06 01:23 34.20856 -117.94959 24351 ft 264 kts 54°
2026-05-06 01:24 34.21928 -117.93146 24773 ft 265 kts 54°
2026-05-06 01:24 34.23003 -117.91329 25195 ft 267 kts 54°
2026-05-06 01:24 34.24079 -117.89494 25638 ft 268 kts 55°
2026-05-06 01:24 34.25139 -117.87632 26069 ft 269 kts 55°
2026-05-06 01:25 34.26198 -117.85757 26485 ft 271 kts 55°
2026-05-06 01:25 34.27263 -117.83870 26906 ft 272 kts 55°
2026-05-06 01:25 34.28329 -117.81978 27301 ft 273 kts 55°
2026-05-06 01:25 34.29403 -117.80070 27713 ft 275 kts 55°
2026-05-06 01:26 34.30483 -117.78149 28117 ft 276 kts 55°
2026-05-06 01:26 34.31564 -117.76224 28542 ft 277 kts 55°
2026-05-06 01:26 34.32656 -117.74287 28922 ft 279 kts 55°
2026-05-06 01:26 34.33748 -117.72344 29308 ft 280 kts 55°
2026-05-06 01:27 34.34834 -117.70410 29697 ft 281 kts 55°
2026-05-06 01:27 34.35935 -117.68452 30058 ft 283 kts 55°
2026-05-06 01:27 34.37043 -117.66472 30355 ft 285 kts 55°
2026-05-06 01:27 34.38156 -117.64472 30597 ft 288 kts 55°
2026-05-06 01:28 34.39275 -117.62449 30854 ft 291 kts 55°
2026-05-06 01:28 34.40420 -117.60418 31099 ft 293 kts 54°
2026-05-06 01:28 34.41596 -117.58385 31332 ft 296 kts 53°
2026-05-06 01:28 34.42800 -117.56343 31568 ft 299 kts 53°
2026-05-06 01:29 34.44015 -117.54276 31807 ft 301 kts 53°
2026-05-06 01:29 34.45233 -117.52235 32208 ft 299 kts 53°
2026-05-06 01:29 34.46454 -117.50194 32525 ft 300 kts 53°
2026-05-06 01:29 34.47684 -117.48127 32754 ft 303 kts 53°
2026-05-06 01:30 34.48921 -117.46036 32979 ft 307 kts 53°
2026-05-06 01:30 34.50167 -117.43924 33182 ft 310 kts 53°
2026-05-06 01:30 34.51426 -117.41782 33390 ft 313 kts 53°
2026-05-06 01:30 34.52691 -117.39619 33598 ft 316 kts 53°
2026-05-06 01:31 34.53969 -117.37422 33802 ft 319 kts 53°
2026-05-06 01:31 34.55254 -117.35223 34000 ft 321 kts 52°
2026-05-06 01:31 34.56566 -117.33019 34174 ft 324 kts 52°
2026-05-06 01:31 34.57893 -117.30792 34333 ft 326 kts 52°
2026-05-06 01:32 34.59223 -117.28557 34510 ft 328 kts 51°
2026-05-06 01:32 34.60566 -117.26306 34674 ft 330 kts 52°
2026-05-06 01:32 34.61910 -117.24042 34840 ft 331 kts 53°
2026-05-06 01:32 34.63247 -117.21797 34985 ft 333 kts 52°
2026-05-06 01:33 34.64604 -117.19508 35140 ft 335 kts 52°
2026-05-06 01:33 34.65972 -117.17199 35235 ft 337 kts 52°
2026-05-06 01:33 34.67342 -117.14883 35383 ft 339 kts 52°
2026-05-06 01:33 34.68713 -117.12557 35570 ft 340 kts 51°
2026-05-06 01:34 34.70092 -117.10205 35685 ft 342 kts 51°
2026-05-06 01:34 34.71472 -117.07842 35842 ft 344 kts 53°
2026-05-06 01:34 34.72871 -117.05474 35976 ft 346 kts 53°
2026-05-06 01:34 34.74276 -117.03084 36109 ft 348 kts 51°
2026-05-06 01:35 34.76630 -116.99080 36328 ft 351 kts 52°
2026-05-06 01:35 34.78055 -116.96664 36462 ft 353 kts 52°
2026-05-06 01:35 34.79493 -116.94229 36600 ft 355 kts 53°
2026-05-06 01:36 34.80938 -116.91792 36729 ft 356 kts 52°
2026-05-06 01:36 34.82390 -116.89347 36884 ft 358 kts 52°
2026-05-06 01:36 34.85365 -116.84371 36927 ft 370 kts 52°
2026-05-06 01:37 34.88474 -116.79216 36926 ft 384 kts 53°
2026-05-06 01:37 34.91688 -116.73911 36925 ft 398 kts 51°
2026-05-06 01:38 34.95190 -116.68545 36916 ft 410 kts 48°
2026-05-06 01:38 34.98943 -116.63251 36905 ft 418 kts 46°
2026-05-06 01:39 35.02862 -116.57868 36890 ft 430 kts 47°
2026-05-06 01:39 35.06899 -116.52346 36874 ft 441 kts 46°
2026-05-06 01:40 35.11041 -116.46705 36860 ft 451 kts 47°
2026-05-06 01:40 35.15260 -116.40953 36860 ft 458 kts 47°
2026-05-06 01:41 35.19529 -116.35158 36876 ft 463 kts 47°
2026-05-06 01:41 35.23887 -116.29327 36871 ft 464 kts 47°
2026-05-06 01:42 35.28298 -116.23426 36862 ft 456 kts 47°
2026-05-06 01:42 35.30395 -116.20626 36923 ft 435 kts 47°
2026-05-06 01:42 35.32429 -116.17905 36781 ft 435 kts 47°
2026-05-06 01:43 35.36553 -116.12391 36881 ft 443 kts 47°
2026-05-06 01:43 35.40761 -116.06763 36880 ft 452 kts 47°
2026-05-06 01:44 35.45036 -116.01039 36899 ft 458 kts 47°
2026-05-06 01:44 35.49341 -115.95283 36899 ft 463 kts 47°
2026-05-06 01:45 35.53688 -115.89460 36899 ft 462 kts 47°
2026-05-06 01:45 35.58024 -115.83646 36909 ft 462 kts 47°
2026-05-06 01:46 35.62349 -115.77842 36908 ft 462 kts 47°
2026-05-06 01:46 35.66694 -115.72010 36917 ft 462 kts 47°
2026-05-06 01:47 35.71043 -115.66173 36921 ft 463 kts 47°
2026-05-06 01:47 35.75392 -115.60325 36917 ft 464 kts 46°
2026-05-06 01:48 35.79719 -115.54478 36912 ft 465 kts 46°
2026-05-06 01:48 35.84063 -115.48618 36916 ft 465 kts 47°
2026-05-06 01:49 35.88458 -115.42765 36925 ft 465 kts 47°
2026-05-06 01:49 35.92869 -115.36891 36931 ft 465 kts 47°
2026-05-06 01:50 35.97262 -115.31037 36918 ft 465 kts 47°
2026-05-06 01:50 36.01665 -115.25164 36884 ft 466 kts 47°
2026-05-06 01:51 36.06049 -115.19317 36884 ft 466 kts 47°
2026-05-06 01:51 36.09979 -115.13155 36883 ft 467 kts 64°
2026-05-06 01:52 36.12241 -115.05691 36885 ft 468 kts 70°
2026-05-06 01:52 36.14409 -114.98074 36821 ft 469 kts 70°
2026-05-06 01:53 36.16565 -114.90536 36817 ft 466 kts 70°
2026-05-06 01:53 36.18732 -114.82960 36810 ft 468 kts 70°
2026-05-06 01:54 36.20912 -114.75344 36798 ft 470 kts 70°
2026-05-06 01:54 36.23102 -114.67706 36787 ft 471 kts 70°
2026-05-06 01:55 36.25290 -114.60072 36777 ft 472 kts 70°
2026-05-06 01:55 36.27490 -114.52402 36774 ft 472 kts 70°
2026-05-06 01:56 36.29664 -114.44778 36769 ft 464 kts 70°
2026-05-06 01:56 36.31804 -114.37254 36779 ft 460 kts 70°
2026-05-06 01:57 36.33941 -114.29774 36780 ft 460 kts 70°
2026-05-06 01:57 36.36088 -114.22276 36782 ft 460 kts 70°
2026-05-06 01:58 36.38219 -114.14829 36780 ft 460 kts 70°
2026-05-06 01:58 36.40361 -114.07347 36797 ft 461 kts 70°
2026-05-06 01:59 36.42505 -113.99852 36810 ft 460 kts 69°
2026-05-06 01:59 36.44654 -113.92352 36813 ft 460 kts 70°
2026-05-06 02:00 36.46800 -113.84854 36843 ft 460 kts 70°
2026-05-06 02:00 36.48947 -113.77358 36828 ft 461 kts 69°
2026-05-06 02:01 36.51079 -113.69889 36836 ft 462 kts 69°
2026-05-06 02:01 36.53215 -113.62353 36837 ft 462 kts 69°
2026-05-06 02:02 36.55359 -113.54796 36844 ft 463 kts 70°
2026-05-06 02:02 36.57510 -113.47245 36853 ft 463 kts 69°
2026-05-06 02:03 36.59944 -113.39815 36845 ft 463 kts 66°
2026-05-06 02:03 36.62437 -113.32401 36839 ft 464 kts 66°
2026-05-06 02:04 36.64930 -113.24992 36838 ft 465 kts 66°
2026-05-06 02:04 36.67417 -113.17606 36861 ft 465 kts 66°
2026-05-06 02:05 36.69750 -113.10081 36876 ft 466 kts 70°
2026-05-06 02:05 36.71970 -113.02467 36876 ft 468 kts 70°
2026-05-06 02:06 36.74210 -112.94817 36880 ft 470 kts 69°
2026-05-06 02:06 36.76452 -112.87161 36883 ft 471 kts 69°
2026-05-06 02:07 36.78703 -112.79478 36880 ft 472 kts 69°
2026-05-06 02:07 36.80956 -112.71820 36859 ft 474 kts 69°
2026-05-06 02:08 36.83236 -112.64096 36849 ft 475 kts 69°
2026-05-06 02:08 36.85525 -112.56334 36838 ft 477 kts 69°
2026-05-06 02:09 36.87827 -112.48541 36861 ft 477 kts 69°
2026-05-06 02:09 36.90138 -112.40753 36839 ft 480 kts 69°
2026-05-06 02:10 36.92467 -112.32963 36830 ft 482 kts 69°
2026-05-06 02:10 36.94727 -112.25061 36829 ft 483 kts 70°
2026-05-06 02:11 36.96978 -112.17136 36821 ft 484 kts 70°
2026-05-06 02:11 36.99245 -112.09178 36818 ft 486 kts 70°
2026-05-06 02:12 37.01524 -112.01232 36784 ft 487 kts 70°
2026-05-06 02:12 37.03800 -111.93251 36782 ft 486 kts 70°
2026-05-06 02:13 37.06046 -111.85266 36782 ft 485 kts 70°
2026-05-06 02:13 37.08282 -111.77319 36750 ft 484 kts 70°
2026-05-06 02:14 37.10533 -111.69415 36729 ft 485 kts 70°
2026-05-06 02:14 37.12804 -111.61451 36732 ft 485 kts 70°
2026-05-06 02:15 37.15019 -111.53438 36783 ft 486 kts 71°
2026-05-06 02:15 37.17190 -111.45412 36782 ft 486 kts 71°
2026-05-06 02:16 37.19002 -111.38724 36767 ft 486 kts 71°
2026-05-06 02:16 37.21178 -111.30697 36742 ft 486 kts 71°
2026-05-06 02:17 37.23361 -111.22649 36719 ft 486 kts 71°
2026-05-06 02:17 37.25632 -111.14658 36712 ft 486 kts 69°
2026-05-06 02:18 37.28257 -111.06819 36690 ft 486 kts 64°
2026-05-06 02:18 37.31170 -110.99192 36681 ft 487 kts 64°
2026-05-06 02:19 37.34104 -110.91535 36692 ft 488 kts 64°
2026-05-06 02:19 37.37054 -110.83847 36690 ft 488 kts 64°
2026-05-06 02:20 37.41507 -110.72308 36671 ft 489 kts 64°
2026-05-06 02:21 37.44494 -110.64605 36677 ft 489 kts 64°
2026-05-06 02:21 37.47481 -110.56905 36675 ft 490 kts 63°
2026-05-06 02:22 37.50461 -110.49233 36680 ft 490 kts 63°
2026-05-06 02:22 37.53474 -110.41485 36688 ft 491 kts 63°
2026-05-06 02:23 37.56476 -110.33757 36719 ft 491 kts 63°
2026-05-06 02:23 37.59453 -110.26035 36725 ft 489 kts 63°
2026-05-06 02:24 37.62424 -110.18334 36729 ft 488 kts 63°
2026-05-06 02:24 37.65393 -110.10643 36726 ft 487 kts 63°
2026-05-06 02:25 37.68367 -110.02945 36732 ft 488 kts 63°
2026-05-06 02:25 37.71321 -109.95301 36724 ft 488 kts 63°
2026-05-06 02:26 37.74301 -109.87595 36739 ft 488 kts 63°
2026-05-06 02:26 37.77293 -109.79869 36747 ft 489 kts 63°
2026-05-06 02:27 37.80290 -109.72133 36732 ft 490 kts 63°
2026-05-06 02:27 37.83273 -109.64434 36781 ft 490 kts 63°
2026-05-06 02:28 37.86279 -109.56683 36778 ft 491 kts 63°
2026-05-06 02:28 37.89293 -109.48925 36758 ft 491 kts 63°
2026-05-06 02:29 37.92318 -109.41153 36726 ft 492 kts 63°
2026-05-06 02:29 37.95356 -109.33370 36701 ft 493 kts 63°
2026-05-06 02:30 37.98386 -109.25571 36718 ft 492 kts 63°
2026-05-06 02:30 38.01381 -109.17837 36727 ft 491 kts 63°
2026-05-06 02:31 38.04391 -109.10074 36718 ft 491 kts 63°
2026-05-06 02:31 38.07416 -109.02285 36701 ft 491 kts 63°
2026-05-06 02:32 38.10445 -108.94499 36685 ft 492 kts 63°
2026-05-06 02:32 38.13480 -108.86703 36683 ft 492 kts 63°
2026-05-06 02:33 38.16524 -108.78892 36679 ft 493 kts 63°
2026-05-06 02:33 38.17533 -108.76302 36681 ft 493 kts 63°
2026-05-06 02:34 38.22633 -108.63224 36670 ft 496 kts 63°
2026-05-06 02:34 38.25704 -108.55361 36679 ft 496 kts 63°
2026-05-06 02:35 38.28763 -108.47535 36678 ft 497 kts 63°
2026-05-06 02:35 38.31848 -108.39648 36683 ft 498 kts 63°
2026-05-06 02:36 38.34952 -108.31726 36689 ft 500 kts 63°
2026-05-06 02:36 38.38042 -108.23781 36705 ft 500 kts 63°
2026-05-06 02:37 38.41127 -108.15839 36793 ft 500 kts 63°
2026-05-06 02:37 38.44201 -108.07935 36837 ft 500 kts 63°
2026-05-06 02:38 38.47292 -107.99986 36881 ft 499 kts 63°
2026-05-06 02:38 38.50310 -107.91993 36882 ft 499 kts 64°
2026-05-06 02:39 38.53301 -107.83988 36881 ft 500 kts 64°
2026-05-06 02:39 38.54796 -107.79992 36692 ft 499 kts 63°
2026-05-06 02:39 38.56292 -107.75994 36689 ft 499 kts 63°
2026-05-06 02:40 38.59293 -107.67979 36688 ft 500 kts 63°
2026-05-06 02:40 38.62276 -107.60012 36698 ft 500 kts 63°
2026-05-06 02:41 38.65265 -107.52037 36704 ft 501 kts 63°
2026-05-06 02:41 38.68257 -107.44056 35969 ft 497 kts 63°
2026-05-06 02:41 38.69732 -107.40084 35176 ft 491 kts 63°
2026-05-06 02:42 38.71182 -107.36123 34389 ft 488 kts 63°
2026-05-06 02:42 38.72590 -107.32185 33595 ft 483 kts 62°
2026-05-06 02:42 38.73967 -107.28287 32785 ft 475 kts 63°
2026-05-06 02:42 38.75320 -107.24463 31791 ft 472 kts 63°
2026-05-06 02:43 38.76679 -107.20634 30680 ft 472 kts 63°
2026-05-06 02:43 38.78028 -107.16850 30048 ft 474 kts 63°
2026-05-06 02:43 38.79428 -107.12942 29794 ft 478 kts 63°
2026-05-06 02:43 38.80801 -107.09111 29517 ft 480 kts 63°
2026-05-06 02:44 38.82197 -107.05217 29231 ft 481 kts 63°
2026-05-06 02:44 38.83607 -107.01291 28970 ft 487 kts 64°
2026-05-06 02:44 38.85029 -106.97333 28693 ft 490 kts 63°
2026-05-06 02:44 38.86456 -106.93362 28415 ft 492 kts 64°
2026-05-06 02:45 38.87898 -106.89362 28148 ft 493 kts 63°
2026-05-06 02:45 38.89338 -106.85386 27917 ft 494 kts 63°
2026-05-06 02:45 38.90792 -106.81377 27649 ft 495 kts 63°
2026-05-06 02:45 38.92248 -106.77363 27382 ft 496 kts 63°
2026-05-06 02:46 38.93709 -106.73347 27117 ft 497 kts 63°
2026-05-06 02:46 38.95173 -106.69326 26880 ft 497 kts 63°
2026-05-06 02:46 38.96654 -106.65297 26758 ft 501 kts 63°
2026-05-06 02:46 38.98147 -106.61253 26790 ft 503 kts 63°
2026-05-06 02:47 38.99648 -106.57192 26802 ft 500 kts 63°
2026-05-06 02:47 39.01106 -106.53242 26828 ft 475 kts 63°
2026-05-06 02:47 39.02484 -106.49487 26773 ft 455 kts 63°
2026-05-06 02:47 39.03814 -106.45869 26576 ft 440 kts 63°
2026-05-06 02:48 39.05111 -106.42336 26134 ft 433 kts 63°
2026-05-06 02:48 39.06394 -106.38838 25598 ft 429 kts 63°
2026-05-06 02:48 39.07665 -106.35380 25067 ft 426 kts 63°
2026-05-06 02:48 39.08928 -106.31941 24510 ft 424 kts 63°
2026-05-06 02:49 39.10174 -106.28545 23979 ft 423 kts 63°
2026-05-06 02:49 39.11439 -106.25115 23398 ft 423 kts 63°
2026-05-06 02:49 39.12705 -106.21698 23007 ft 422 kts 63°
2026-05-06 02:49 39.13968 -106.18287 22929 ft 422 kts 63°
2026-05-06 02:50 39.15239 -106.14855 22935 ft 423 kts 63°
2026-05-06 02:50 39.16505 -106.11433 22922 ft 423 kts 63°
2026-05-06 02:50 39.17750 -106.08073 22558 ft 419 kts 63°
2026-05-06 02:50 39.18998 -106.04698 21992 ft 416 kts 63°
2026-05-06 02:51 39.20240 -106.01333 21447 ft 414 kts 63°
2026-05-06 02:51 39.21471 -105.97987 20976 ft 412 kts 63°
2026-05-06 02:51 39.22702 -105.94658 20794 ft 412 kts 63°
2026-05-06 02:51 39.23941 -105.91312 20816 ft 413 kts 63°
2026-05-06 02:52 39.25187 -105.87951 20813 ft 414 kts 63°
2026-05-06 02:52 39.26397 -105.84691 20810 ft 413 kts 63°
2026-05-06 02:52 39.27638 -105.81345 20397 ft 409 kts 63°
2026-05-06 02:52 39.28863 -105.78043 19924 ft 407 kts 63°
2026-05-06 02:53 39.30081 -105.74756 19432 ft 404 kts 63°
2026-05-06 02:53 39.31278 -105.71525 18993 ft 402 kts 63°
2026-05-06 02:53 39.32478 -105.68284 18816 ft 402 kts 63°
2026-05-06 02:53 39.33673 -105.65057 18836 ft 395 kts 63°
2026-05-06 02:54 39.34797 -105.62007 18898 ft 393 kts 63°
2026-05-06 02:54 39.35964 -105.58812 18801 ft 391 kts 63°
2026-05-06 02:54 39.37122 -105.55642 18354 ft 389 kts 63°
2026-05-06 02:54 39.38271 -105.52483 17872 ft 387 kts 63°
2026-05-06 02:55 39.39397 -105.49374 17696 ft 377 kts 63°
2026-05-06 02:55 39.40496 -105.46339 17468 ft 368 kts 63°
2026-05-06 02:55 39.41565 -105.43379 17272 ft 359 kts 63°
2026-05-06 02:55 39.42342 -105.40331 16961 ft 357 kts 82°
2026-05-06 02:56 39.42444 -105.37124 16866 ft 356 kts 91°
2026-05-06 02:56 39.42370 -105.33915 16921 ft 357 kts 92°
2026-05-06 02:56 39.42282 -105.30714 16750 ft 356 kts 92°
2026-05-06 02:56 39.42190 -105.27516 16511 ft 355 kts 92°
2026-05-06 02:57 39.42094 -105.24404 16179 ft 353 kts 92°
2026-05-06 02:57 39.41993 -105.21215 15866 ft 350 kts 92°
2026-05-06 02:57 39.41890 -105.18083 15543 ft 347 kts 92°
2026-05-06 02:57 39.41785 -105.14972 15217 ft 345 kts 92°
2026-05-06 02:58 39.41751 -105.11867 14905 ft 343 kts 89°
2026-05-06 02:58 39.41789 -105.08805 14583 ft 340 kts 88°
2026-05-06 02:58 39.41828 -105.05747 14283 ft 337 kts 88°
2026-05-06 02:58 39.41864 -105.02723 13975 ft 334 kts 88°
2026-05-06 02:59 39.41899 -104.99714 13563 ft 336 kts 88°
2026-05-06 02:59 39.41938 -104.96729 13108 ft 336 kts 88°
2026-05-06 02:59 39.41985 -104.93751 12971 ft 325 kts 88°
2026-05-06 02:59 39.42174 -104.90876 12797 ft 318 kts 81°
2026-05-06 03:00 39.42506 -104.88085 12633 ft 310 kts 80°
2026-05-06 03:00 39.42841 -104.85369 12502 ft 301 kts 80°
2026-05-06 03:00 39.43171 -104.82742 12372 ft 292 kts 80°
2026-05-06 03:00 39.43389 -104.81028 12284 ft 286 kts 80°
2026-05-06 03:01 39.43710 -104.78527 12159 ft 278 kts 80°
2026-05-06 03:01 39.44028 -104.76092 12033 ft 270 kts 80°
2026-05-06 03:01 39.44567 -104.73841 11990 ft 256 kts 59°
2026-05-06 03:01 39.45715 -104.72228 11998 ft 239 kts 26°
2026-05-06 03:02 39.47257 -104.71549 12003 ft 233 kts
2026-05-06 03:02 39.48856 -104.71234 12004 ft 233 kts
2026-05-06 03:02 39.50433 -104.70975 11998 ft 226 kts
2026-05-06 03:02 39.51988 -104.70725 12001 ft 224 kts
2026-05-06 03:03 39.53538 -104.70478 11966 ft 223 kts
2026-05-06 03:03 39.55093 -104.70261 11475 ft 232 kts
2026-05-06 03:03 39.56740 -104.70158 10924 ft 242 kts 359°
2026-05-06 03:03 39.58459 -104.70182 10377 ft 253 kts 358°
2026-05-06 03:04 39.60252 -104.70224 9802 ft 262 kts 359°
2026-05-06 03:04 39.62106 -104.70270 9212 ft 271 kts 359°
2026-05-06 03:04 39.63992 -104.70343 8695 ft 265 kts 359°
2026-05-06 03:04 39.65746 -104.70135 8272 ft 241 kts
2026-05-06 03:05 39.67279 -104.69891 8045 ft 200 kts 10°
2026-05-06 03:05 39.68568 -104.69575 8005 ft 187 kts 15°
2026-05-06 03:05 39.69779 -104.69261 7760 ft 172 kts 12°
2026-05-06 03:05 39.71005 -104.69030 7007 ft 183 kts
2026-05-06 03:06 39.72274 -104.68924 6377 ft 180 kts
2026-05-06 03:06 39.73469 -104.68884 5946 ft 166 kts
2026-05-06 03:06 39.74502 -104.68862 6069 ft 126 kts
2026-05-06 03:06 39.75360 -104.68855 6392 ft 134 kts
2026-05-06 03:07 39.76368 -104.68845 7113 ft 154 kts
2026-05-06 03:07 39.77582 -104.68883 7820 ft 178 kts
2026-05-06 03:07 39.78839 -104.68943 8722 ft 196 kts
2026-05-06 03:07 39.80358 -104.68994 8966 ft 233 kts
2026-05-06 03:08 39.82048 -104.69037 9012 ft 239 kts
2026-05-06 03:08 39.83733 -104.69244 9021 ft 258 kts 343°
2026-05-06 03:08 39.85298 -104.70447 9025 ft 268 kts 313°
2026-05-06 03:08 39.86250 -104.72506 9014 ft 268 kts 284°
2026-05-06 03:09 39.86455 -104.74904 9022 ft 268 kts 269°
2026-05-06 03:09 39.86446 -104.77329 9020 ft 267 kts 267°
2026-05-06 03:09 39.86415 -104.79752 9020 ft 268 kts 267°
2026-05-06 03:09 39.86230 -104.82149 9014 ft 265 kts 250°
2026-05-06 03:10 39.85293 -104.84161 9006 ft 260 kts 220°
2026-05-06 03:10 39.83748 -104.85301 9008 ft 256 kts 192°
2026-05-06 03:10 39.81979 -104.85506 8972 ft 256 kts 179°
2026-05-06 03:10 39.80198 -104.85479 8974 ft 256 kts 178°
2026-05-06 03:11 39.78439 -104.85430 8969 ft 256 kts 177°
2026-05-06 03:11 39.76638 -104.85378 8971 ft 256 kts 177°
2026-05-06 03:11 39.74878 -104.85322 8969 ft 256 kts 178°
2026-05-06 03:11 39.73098 -104.85264 8972 ft 253 kts 177°
2026-05-06 03:12 39.71392 -104.85211 8993 ft 238 kts 177°
2026-05-06 03:12 39.69755 -104.85160 8998 ft 233 kts 178°
2026-05-06 03:12 39.68137 -104.85110 9001 ft 233 kts 178°
2026-05-06 03:12 39.66515 -104.85002 8999 ft 231 kts 167°
2026-05-06 03:13 39.65105 -104.84105 8917 ft 228 kts 136°
2026-05-06 03:13 39.64286 -104.82389 8543 ft 227 kts 103°
2026-05-06 03:13 39.64174 -104.80346 8160 ft 227 kts 89°
2026-05-06 03:13 39.64247 -104.78313 7986 ft 226 kts 87°
2026-05-06 03:14 39.64339 -104.76276 7983 ft 227 kts 87°
2026-05-06 03:14 39.64435 -104.74231 7988 ft 224 kts 87°
2026-05-06 03:14 39.64626 -104.72249 7986 ft 221 kts 71°
2026-05-06 03:14 39.65508 -104.70645 7983 ft 218 kts 38°
2026-05-06 03:15 39.66785 -104.69673 7982 ft 208 kts 28°
2026-05-06 03:15 39.68170 -104.69201 7995 ft 207 kts
2026-05-06 03:15 39.69601 -104.68998 7987 ft 206 kts
2026-05-06 03:15 39.71018 -104.68913 7788 ft 204 kts
2026-05-06 03:16 39.72439 -104.68883 7544 ft 203 kts
2026-05-06 03:16 39.73838 -104.68866 7335 ft 199 kts
2026-05-06 03:16 39.75202 -104.68850 7012 ft 198 kts
2026-05-06 03:16 39.76596 -104.68833 6980 ft 198 kts
2026-05-06 03:17 39.77948 -104.68818 7004 ft 191 kts
2026-05-06 03:17 39.79248 -104.68804 6899 ft 183 kts
2026-05-06 03:17 39.80497 -104.68789 6703 ft 174 kts
2026-05-06 03:17 39.81693 -104.68775 6474 ft 170 kts
2026-05-06 03:18 39.82870 -104.68761 6174 ft 168 kts
2026-05-06 03:18 39.84020 -104.68747 5924 ft 163 kts
2026-05-06 03:18 39.85129 -104.68734 5670 ft 154 kts 359°
2026-05-06 03:18 39.86139 -104.68721 5466 ft 140 kts 359°
2026-05-06 03:19 39.87047 -104.68711 5385 ft 114 kts
2026-05-06 03:19 39.87669 -104.68704 5384 ft 68 kts
2026-05-06 03:19 39.88071 -104.68697 5377 ft 56 kts
2026-05-06 03:19 39.88419 -104.68681 5365 ft 35 kts
2026-05-06 03:20 39.88602 -104.68528 5364 ft 0 kts 91°
2026-05-06 03:20 39.88601 -104.68523 5364 ft 3 kts 104°
2026-05-06 03:21 39.88532 -104.68468 5366 ft 12 kts 164°
2026-05-06 03:21 39.88449 -104.68477 5364 ft 11 kts 188°
2026-05-06 03:21 39.88387 -104.68485 5366 ft 7 kts 180°
2026-05-06 03:21 39.88325 -104.68485 5368 ft 16 kts 181°
2026-05-06 03:22 39.88154 -104.68485 5372 ft 31 kts 180°
2026-05-06 03:22 39.87939 -104.68490 5378 ft 30 kts 181°
2026-05-06 03:22 39.87732 -104.68494 5381 ft 30 kts 181°
2026-05-06 03:22 39.87523 -104.68495 5382 ft 31 kts 179°
2026-05-06 03:23 39.87304 -104.68494 5379 ft 32 kts 181°
2026-05-06 03:23 39.87085 -104.68501 5384 ft 31 kts 181°
2026-05-06 03:23 39.86867 -104.68501 5387 ft 31 kts 180°
2026-05-06 03:23 39.86661 -104.68506 5392 ft 29 kts 181°
2026-05-06 03:24 39.86527 -104.68505 5391 ft 12 kts 179°
2026-05-06 03:24 39.86450 -104.68506 5396 ft 11 kts 184°
2026-05-06 03:24 39.86376 -104.68512 5400 ft 11 kts 182°
2026-05-06 03:24 39.86295 -104.68512 5392 ft 14 kts 176°
2026-05-06 03:25 39.86177 -104.68508 5390 ft 20 kts 179°
2026-05-06 03:25 39.86014 -104.68512 5388 ft 26 kts 182°
2026-05-06 03:25 39.85809 -104.68518 5377 ft 32 kts 179°
2026-05-06 03:25 39.85596 -104.68518 5373 ft 27 kts 180°
2026-05-06 03:26 39.85396 -104.68525 5372 ft 29 kts 181°
2026-05-06 03:26 39.85314 -104.68490 5375 ft 9 kts 121°
2026-05-06 03:26 39.85309 -104.68420 5378 ft 7 kts 94°
2026-05-06 03:26 39.85305 -104.68362 5381 ft 6 kts 93°
2026-05-06 03:27 39.85305 -104.68297 5383 ft 7 kts 91°
2026-05-06 03:27 39.85297 -104.68222 5385 ft 11 kts 96°
2026-05-06 03:27 39.85284 -104.68095 5383 ft 17 kts 99°
2026-05-06 03:27 39.85279 -104.67926 5384 ft 20 kts 89°
2026-05-06 03:28 39.85286 -104.67743 5384 ft 16 kts 78°
2026-05-06 03:28 39.85332 -104.67713 5385 ft 4 kts 12°